Regional Weather Roundup
Issued by NWS

Home | Current Version | Previous Version | Text Only | Print | Product List | Glossary On
Versions: 1 2 3 4 5 6 7 8 9 10 11 12 13 14 15 16 17 18 19 20 21 22 23 24 25 26 27 28 29 30 31 32 33 34 35 36 37 38 39 40 41 42 43 44 45 46 47 48 49 50
000
ASUS42 KKEY 181110
RWRKEY

FLORIDA REGIONAL WEATHER ROUNDUP FOR THE FLORIDA KEYS
NATIONAL WEATHER SERVICE KEY WEST FLORIDA
600 AM EST MON DEC 18 2017

...SOUTH FLORIDA AND THE KEYS...

CITY           SKY/WX    TMP DP  RH WIND       PRES   REMARKS
FORT MYERS     FOG       64  64 100 CALM      30.20R VSB 1/4
SW REGIONAL AP FOG       62  62 100 CALM      30.20S VSB 1/4
NAPLES         CLEAR     64  64 100 E3        30.20R FOG
MIAMI          MOCLDY    72  70  93 CALM      30.21R
WEST KENDALL   MOCLDY    67  66  97 CALM      30.21R FOG
HOMESTEAD      PTCLDY    66  66 100 CALM      30.20R
MARATHON       CLEAR     70  68  93 NE5       30.19R
KEY WEST INTL  CLEAR     73  71  93 NE6       30.19R

...INTERNATIONAL WEATHER...

CITY           SKY/WX    TMP DP  RH WIND       PRES   REMARKS
NASSAU BAHAMAS MOCLDY    73  68  83 E3        30.22R
CANCUN MEXICO  NOT AVBL
COZUMEL MEXICO CLEAR     73  72  94 E6        30.05S

ADJACENT COASTAL WATERS...

STATION/POSITION TIME  SKY/WX   TEMP    WIND        PRES    WAVE
                                AIR SEA DIR/SP/G            HT/PER
                 (UTC)          (F)     (DEG/KT/KT) (MB)    (FT/S)
PULASKI SHOAL LI 1100            75      80/ 14/ 15 1021.9R
SAND KEY         1050            73                 1022.5R
LONG KEY         NOT AVBL
MOLASSES REEF    1100            76 77  120/ 10/ 11 1022.9R
FOWEY ROCKS      1100            76 74  110/ 12/ 13 1023.5R
Buoy 42097       1030               76                N/A     2/ 4

$$



USA.gov is the U.S. government's official web portal to all federal, state and local government web resources and services.